Location: Atlantic Beach
(40.5890°N, 73.7290°W)
Time: 08:16:38
(UTC+00:00)

Envisat - Pass Details

Date: 31 January 2021
Orbit: 764 x 766 km, 98.1° (Epoch: 24 February)

Event Time Altitude Azimuth Distance (km) Brightness Sun altitude
Rises 10:52:17 0° 10° (N) 3,239 6.2 -14.1°
Reaches altitude 10° 10:54:36 10° 9° (N) 2,309 5.5 -13.7°
Maximum altitude 10:59:40 73° 286° (WNW) 801 2.9 -12.7°
Drops below altitude 10° 11:04:42 10° 202° (SSW) 2,292 5.4 -11.8°
Sets 11:07:00 0° 200° (SSW) 3,214 6.2 -11.4°
